DW9029 Weather Reports


Display with metric or nautical units.
time (UTC)temp
F
wind
direction
speed
MPH
gust
MPH
rain 1hr
in
rain 24hr
in
rain mn
in
humidity
%
barometer
mb
20260506033405 59 338 0.0 2.0 0.00 0.00 0.00 64 1011.4
20260506031905 59 337 0.0 1.0 0.00 0.00 0.00 63 1011.4
20260506031405 59 339 0.0 3.0 0.00 0.00 0.00 63 1011.4
20260506030905 60 345 0.0 2.0 0.00 0.00 0.00 62 1011.4
20260506030405 60 344 0.0 0.0 0.00 0.00 0.00 62 1011.3
20260506024905 60 347 0.0 0.0 0.00 0.00 0.00 62 1011.4
20260506024405 60 349 0.0 3.0 0.00 0.00 0.00 62 1011.4
20260506023904 60 346 1.0 5.0 0.00 0.00 0.00 61 1011.3
20260506023404 60 8 0.0 3.0 0.00 0.00 0.00 61 1011.3
20260506021904 60 325 0.0 3.0 0.00 0.00 0.00 60 1011.3
20260506021405 60 327 0.0 5.0 0.00 0.00 0.00 60 1011.3
20260506020904 60 320 0.0 3.0 0.00 0.00 0.00 59 1011.3
20260506020404 60 311 0.0 3.0 0.00 0.00 0.00 59 1011.4
20260506014405 60 341 0.0 5.0 0.00 0.00 0.00 57 1011.4
20260506013904 60 338 1.0 3.0 0.00 0.00 0.00 57 1011.4
20260506013405 60 350 0.0 0.0 0.00 0.00 0.00 56 1011.4
20260506011904 61 350 0.0 0.0 0.00 0.00 0.00 55 1011.6
20260506011404 61 350 0.0 0.0 0.00 0.00 0.00 55 1011.6
20260506010405 61 350 0.0 0.0 0.00 0.00 0.00 54 1011.8
20260506004904 61 346 0.0 3.0 0.00 0.00 0.00 53 1011.8
20260506004404 62 339 0.0 0.0 0.00 0.00 0.00 53 1011.8
20260506003904 62 338 0.0 0.0 0.00 0.00 0.00 52 1011.8
20260506003405 62 336 0.0 2.0 0.00 0.00 0.00 52 1011.9
20260506001904 62 348 0.0 3.0 0.00 0.00 0.00 51 1012.0
20260506001404 63 347 1.0 3.0 0.00 0.00 0.00 50 1012.0
20260506000404 63 333 0.0 3.0 0.00 0.00 0.00 50 1012.0
20260505234905 64 335 0.0 2.0 0.00 0.00 0.00 49 1012.0
20260505234405 64 337 0.0 3.0 0.00 0.00 0.00 49 1012.0
20260505233904 64 339 0.0 3.0 0.00 0.00 0.00 48 1012.1
20260505233404 64 330 0.0 5.0 0.00 0.00 0.00 48 1012.1
20260505231904 65 335 1.0 6.0 0.00 0.00 0.00 47 1012.0
20260505231404 65 333 2.0 8.0 0.00 0.00 0.00 47 1012.0
20260505230405 65 337 1.0 6.0 0.00 0.00 0.00 46 1012.0
20260505224904 65 326 3.0 8.0 0.00 0.00 0.00 46 1012.1
20260505224405 66 326 2.0 7.0 0.00 0.00 0.00 45 1012.1
20260505223905 66 315 1.0 7.0 0.00 0.00 0.00 45 1012.0
20260505223404 66 313 3.0 8.0 0.00 0.00 0.00 45 1012.0
20260505221905 66 311 5.0 8.0 0.00 0.00 0.00 44 1012.1
20260505220904 66 315 5.0 8.0 0.00 0.00 0.00 44 1012.1
20260505220405 66 322 3.0 9.0 0.00 0.00 0.00 44 1012.1
20260505214904 67 315 2.0 6.0 0.00 0.00 0.00 43 1012.1
20260505214405 67 298 3.0 8.0 0.00 0.00 0.00 43 1012.1
20260505213904 67 292 2.0 9.0 0.00 0.00 0.00 43 1012.1
20260505211905 68 304 3.0 8.0 0.00 0.00 0.00 42 1012.0
20260505211405 68 317 2.0 6.0 0.00 0.00 0.00 42 1012.0
20260505210904 68 303 2.0 7.0 0.00 0.00 0.00 42 1012.0
20260505210404 68 311 4.0 8.0 0.00 0.00 0.00 42 1011.9
20260505204405 69 301 4.0 12.0 0.00 0.00 0.00 41 1011.8
20260505203904 69 296 4.0 7.0 0.00 0.00 0.00 40 1011.8
20260505203405 69 315 2.0 10.0 0.00 0.00 0.00 40 1011.8
20260505201905 70 318 4.0 10.0 0.00 0.00 0.00 39 1011.5
20260505201404 70 333 2.0 7.0 0.00 0.00 0.00 39 1011.5
20260505194905 71 287 2.0 7.0 0.00 0.00 0.00 39 1011.1
20260505194405 71 267 1.0 3.0 0.00 0.00 0.00 39 1010.9
20260505193904 72 292 1.0 5.0 0.00 0.00 0.00 38 1010.9
20260505191905 72 323 2.0 8.0 0.00 0.00 0.00 36 1010.7
20260505191405 73 310 2.0 8.0 0.00 0.00 0.00 36 1010.7
20260505190405 73 323 1.0 9.0 0.00 0.00 0.00 36 1010.5
20260505184904 74 293 0.0 3.0 0.00 0.00 0.00 34 1010.4
20260505183905 74 319 2.0 6.0 0.00 0.00 0.00 34 1010.4
20260505183404 75 330 0.0 7.0 0.00 0.00 0.00 34 1010.3
20260505181905 75 356 2.0 8.0 0.00 0.00 0.00 33 1010.3
20260505181404 75 348 3.0 9.0 0.00 0.00 0.00 33 1010.3
20260505180904 75 17 3.0 8.0 0.00 0.00 0.00 32 1010.3
20260505180405 75 5 4.0 9.0 0.00 0.00 0.00 32 1010.3
20260505174404 76 11 4.0 8.0 0.00 0.00 0.00 32 1010.4
20260505173905 77 341 2.0 9.0 0.00 0.00 0.00 32 1010.4
20260505173404 77 339 5.0 10.0 0.00 0.00 0.00 32 1010.4
20260505171904 77 9 3.0 6.0 0.00 0.00 0.00 31 1010.5
20260505171404 76 332 0.0 0.0 0.00 0.00 0.00 31 1010.6
20260505170904 76 332 0.0 3.0 0.00 0.00 0.00 31 1010.5
20260505164904 76 276 2.0 6.0 0.00 0.00 0.00 32 1010.8
20260505164405 77 281 1.0 7.0 0.00 0.00 0.00 31 1010.8
20260505163904 77 304 5.0 10.0 0.00 0.00 0.00 31 1010.8
20260505161904 77 268 0.0 5.0 0.00 0.00 0.00 30 1010.8
20260505161405 77 276 0.0 3.0 0.00 0.00 0.00 31 1010.9
20260505160904 76 213 1.0 3.0 0.00 0.00 0.00 30 1010.9
20260505160405 76 238 2.0 8.0 0.00 0.00 0.00 30 1010.9
20260505150905 76 340 2.0 3.0 0.00 0.00 0.00 33 1011.3
20260505150404 76 61 3.0 7.0 0.00 0.00 0.00 31 1011.4
20260505140405 74 269 2.0 12.0 0.00 0.00 0.00 33 1012.1
20260505124904 71 259 2.0 7.0 0.00 0.00 0.00 37 1013.0
20260505124404 71 236 2.0 7.0 0.00 0.00 0.00 38 1013.1
20260505123905 70 290 5.0 9.0 0.00 0.00 0.00 38 1013.2
20260505123404 70 199 4.0 9.0 0.00 0.00 0.00 38 1013.2
20260505121904 71 266 2.0 7.0 0.00 0.00 0.00 38 1013.4
20260505121404 71 355 2.0 10.0 0.00 0.00 0.00 38 1013.5
20260505114905 69 19 4.0 12.0 0.00 0.00 0.00 40 1013.9
20260505114404 69 301 3.0 12.0 0.00 0.00 0.00 41 1014.0
20260505111904 67 294 7.0 12.0 0.00 0.00 0.00 41 1014.5
20260505111405 68 265 6.0 12.0 0.00 0.00 0.00 40 1014.4
20260505110905 68 335 1.0 8.0 0.00 0.00 0.00 42 1014.4
20260505110404 67 223 0.0 3.0 0.00 0.00 0.00 43 1014.6
20260505101904 65 173 3.0 7.0 0.00 0.00 0.00 46 1014.8
20260505100905 64 266 2.0 7.0 0.00 0.00 0.00 46 1014.9
20260505094404 65 333 1.0 6.0 0.00 0.00 0.00 47 1015.0
20260505093905 64 288 1.0 5.0 0.00 0.00 0.00 48 1014.9
20260505093404 64 310 2.0 5.0 0.00 0.00 0.00 48 1015.0
20260505091904 63 320 3.0 6.0 0.00 0.00 0.00 49 1015.0
20260505091406 63 333 1.0 5.0 0.00 0.00 0.00 50 1015.1
20260505090904 63 320 1.0 6.0 0.00 0.00 0.00 50 1015.2
20260505090405 63 320 0.0 5.0 0.00 0.00 0.00 52 1015.2
20260505084904 63 41 2.0 5.0 0.00 0.00 0.00 54 1015.1
20260505084404 63 34 0.0 3.0 0.00 0.00 0.00 53 1015.1
20260505083905 63 0 1.0 7.0 0.00 0.00 0.00 54 1015.0
20260505083405 62 336 0.0 5.0 0.00 0.00 0.00 54 1015.2
20260505081905 61 33 0.0 3.0 0.00 0.00 0.00 56 1015.2
20260505081405 61 340 2.0 5.0 0.00 0.00 0.00 56 1015.3
20260505080904 61 21 0.0 6.0 0.00 0.00 0.00 57 1015.3
20260505080405 61 18 1.0 7.0 0.00 0.00 0.00 57 1015.3
20260505074904 61 351 2.0 3.0 0.00 0.00 0.00 57 1015.3
20260505073904 60 2 3.0 5.0 0.00 0.00 0.00 59 1015.3
20260505073404 61 17 1.0 5.0 0.00 0.00 0.00 59 1015.3
20260505071904 60 8 2.0 3.0 0.00 0.00 0.00 61 1015.2
20260505071405 60 5 0.0 0.0 0.00 0.00 0.00 61 1015.2
20260505070904 60 346 0.0 2.0 0.00 0.00 0.00 61 1015.2
20260505070404 60 30 0.0 0.0 0.00 0.00 0.00 62 1015.2
20260505064904 59 32 0.0 0.0 0.00 0.00 0.00 63 1015.1
20260505063905 59 26 0.0 3.0 0.00 0.00 0.00 62 1015.0
20260505061405 58 14 0.0 0.0 0.00 0.00 0.00 63 1014.9
20260505060904 57 0 0.0 2.0 0.00 0.00 0.00 63 1014.8
20260505060405 57 0 1.0 3.0 0.00 0.00 0.00 64 1014.8
20260505054905 57 348 0.0 0.0 0.00 0.00 0.00 64 1014.6
20260505053904 57 355 0.0 0.0 0.00 0.00 0.00 64 1014.4
20260505053405 57 355 0.0 0.0 0.00 0.00 0.00 64 1014.4
20260505051904 57 337 0.0 0.0 0.00 0.00 0.00 64 1014.2
20260505051404 57 332 0.0 1.0 0.00 0.00 0.00 64 1014.2
20260505050904 57 327 0.0 3.0 0.00 0.00 0.00 64 1014.2
20260505050405 57 324 0.0 3.0 0.00 0.00 0.00 64 1014.2
20260505041405 58 333 0.0 3.0 0.00 0.00 0.00 64 1014.1
20260505040905 58 334 0.0 1.0 0.00 0.00 0.00 63 1014.1
20260505040405 58 0 0.0 5.0 0.00 0.00 0.00 63 1014.1
20260505034904 58 344 1.0 3.0 0.00 0.00 0.00 63 1014.1
20260505033904 58 353 4.0 10.0 0.00 0.00 0.00 63 1014.1